Volver al catálogo

GLOBALSTAR M003

ActivoComunicacionesLEO
NORAD 25165·PAYLOAD·🇺🇸 United States

Lanzado Feb 14, 1998 desde Cape Canaveral Space Force Station

Loading…

Próximos Pases (próximas 24 horas)

TLE

ActualizadoSource: Space-Track

Época: Sep 13, 2026, 17:12 UTC

1 25165U 98008D   26256.71734598 -.00000135  00000-0 -48136-3 0  9995
2 25165  51.9814 352.2485 0008711 124.1839  42.3086 12.11994355288217

Sigue GLOBALSTAR M003 en tiempo real con AllMySat

Download on the App Store